Timeline UpdatesTrip UpdatesNews PostsPvt Posts♥♥Travel TipsAdmin PostsConv PostsFollowed PostsChat RequestsBlog PostsPNR Posts

Disclaimer
Search
 
 
Thu Oct 23, 2014 14:56:48 ISTHomeTrainsΣChainsAtlasPNRForumGalleryNewsFAQTripsMembersLoginFeedback
No Recent News for this Train
Other Trains in the News **new
Latest...
.
Thu Jan 03, 2013 (07:52PM)
⇐ Return Journey: Train# 12137

12138/Punjab Mail

Time-Table HAS CHANGED.
Sep 18 2014 (9:28PM)
Change Departure Station:
Change Arrival Station:
Post a Train Travel TipPost a Train Travel Tip **new
Post a Comment/Question/Picture/VideoPost a Comment/Question/Picture/Video
Inaugural Run
Sat Jun 01, 1912
Pantry/Catering
✓ Pantry Car Avbl
✓ Catering Avbl
RSA - Rake Sharing
No RSA.
Rake/Coach Composition
Loco-SLR(Ladies+ RMS)-GEN (Military)-HA1-A1-AB1-B1-B2-B3-B4-B5-S1-PC-S2-S3-S4-S5-S6-S7-S8-S9-S10-GEN-GEN-SLR
Loco
FZR-NDLS=> BGKT WDP-4/4B; NDLS-IGP=> GZB WAP-4/7; IGP-CSTM=> KYN WCAM-3.
News    PNR    Forum    Time-Table    Availability    Fare Chart    Map    Arr/Dep History    Trips    Gallery    ΣChains    X/O    Timeline    
Travel Time: 13h 28m    15 halts    Distance: 767 km    Avg Speed: 56 km/hr
Type: SuperFast
Zone: CR/Central
Departs @ 18:07 (Avg 1h 1m late)
Platform# 2
SMTWTFS
Hoshangabad/HBD 
Arrives @ 07:35 +1 night (Avg 1h 18m late)
Platform# 14
SMTWTFS
Mumbai CST/CSTM 

15 halts. 121 intermediate Stations between Hoshangabad and Mumbai CST

Show ALL intermediate Stations  Show Old Time-Table

#TrkCodeStation NameX/OArrivesAvgDepartsAvgHaltPFDay#KmSpeedElevZoneAddress
1|--|FZRFirozpur Cantt. Junction (5)  -21:40+011-1163.677200mNRFirozpur Cantt 152001, Punjab
2|--|FDKFaridkot (3)  22:05+622:07+62m11-1131.455202mNRFaridkot, Punjab
3|--|KKPKot Kapura Junction (3)  22:21+722:23+72m11-1118.6650mNRKotkapura, Punjab
4|--|GJUTGangsar Jaitu (3)X  22:38+722:40+72m11-1102.361207mNRJaitu, Punjab
5|--|GNAGoneana Bhai Jagta (3)  22:54+822:56+82m11-1088.225206mNRGoniana, Punjab
6|--|BTIBathinda Junction (6)X  23:25-223:35+010m71-1075.979208mNRBathinda, Punjab
7!==!MAURMaur  00:02+900:04+92m12-1040.375220mNRMaur Mandi, Punjab
8!==!MSZMansa  00:19+1000:21+102m12-1021.669222mNRMansa, Punjab
9!==!BLZBudhlada  00:35+1100:37+112m12-1005.571223mNRBudhlada, Punjab
10!==!BRZBareta  00:50+1100:52+112m12-990.253223mNRBareta, Punjab
11!==!JHLJakhal JunctionX  01:08+1001:10+112m--2-975.952225mNRJakhal, Haryana
12|==|TUNTohana (2)X  01:24+1101:26+112m12-963.780232mNRTohana, Haryana
13|==|NRWNarwana Junction (4)  01:45+1301:47+132m--2-938.362235mNRWay to Narwana, Haryana
14|==|JINDJind Junction (3)X  02:21 02:20+1002:23+102 3m--2-904.370222mNRJind 126102, Haryana
15|==|ROKRohtak Junction (3)  03:12+803:14+92m--2-847.381220mNRRohtak, Haryana
16/==/BGZBahadurgarh  03:44+1503:46+152m--2-807.048220mNRBahadurgarh, Haryana
17/==/SSBShakur Basti  04:11+1204:13+122m--2-787.035216mNRPitampura, Delhi NCT
18/==/DKZDelhi KishanGanj (2)  04:25+1604:27+162m12-780.110220mNRSarai Rohilla, Delhi NCT
19/==/NDLSNew Delhi (16)X04:50+1305:15+1325m32-776.258215mNRNew Delhi, Delhi NCT
20/==/FDBFaridabad (4)  05:44+1505:46+152m32-748.061206mNRold Faridabad, Haryana
21/==/KSVKosi Kalan (3)O  06:57+1406:59+172m12-676.365189mNCRKosi Kalan, Uttar Pradesh
22/==/MTJMathura Junction (10)X  07:37+1307:40+143m12-634.873179mNCRMathura, Uttar Pradesh
23/==/RKMRaja Ki Mandi (4)X  08:21+1208:23+132m22-585.29170mNCRAgra, Uttar Pradesh
24/==/AGCAgra Cantt. (6)X  08:50+408:55+45m12-581.290174mNCRAgra, Uttar Pradesh
25/==/DHODholpur Junction (3)X  09:30+1509:32+152m22-528.670177mNCRDholpur, Rajasthan
26/==/MRAMorena (3)X  09:55+1809:57+182m12-501.775176mNCRMorena, Madhya Pradesh
27/==/GWLGwalior Junction (4)  10:28+2310:33+285m12-463.263214mNCRGwalior, Madhya Pradesh
28/==/DBADabra (3)X  11:13+3111:15+312m12-420.867 NCRDabra(District-Gwalior), Madhya Pradesh
29/==/DAADatia (2)O  11:42+3311:44+332m12-390.537264mNCRDatia, Madhya Pradesh
30/==/JHSJhansi Junction (7)X  12:25+2112:33 12:35+238 10m32-365.467259mNCRJhansi, Uttar Pradesh
31/==/BABBabina (3)X  12:58+2813:00+292m12-339.986285mNCRBabina, Uttar Pradesh
32/==/LARLalitpur (3)  13:45+3013:47+312m12-275.165373mNCRLalitpur, Uttar Pradesh
33/==/BINABina Junction (5)  14:45+3614:50+365m22-212.283414mWCRJn Pt - KATNI/GUNA/ BPL/JHS, Madhya Pradesh
34/==/BAQGanj Basoda (4)  15:22 15:23+4115:24 15:25+412m22-166.587 WCRVidisha, Madhya Pradesh
35/==/BHSVidisha (3)X  15:52+4615:54+462m22-127.257 WCRVidisha, Madhya Pradesh
36/==/BPLBhopal Junction (6)X  16:50+4016:55+415m12-73.638497mWCRBhopal, Madhya Pradesh
37/==/HBJBhopal HabibGanj (5)  17:05+4517:07+452m42-67.470496mWCRHabibGanj, Madhya Pradesh
38/==/HBDHoshangabad (2)»X  18:05+1:0018:07+1:012m220.039308mWCRHoshangabad, Madhya Pradesh
39/==/ETItarsi Junction (7)  18:35+5618:40+1:025m4218.184329mWCRItarsi 461111, Madhya Pradesh
40/==/BPFBanapura (2)X  19:04+1:0719:06+1:072m1251.682314mWCRBanapura, Madhya Pradesh
41/==/HDHarda (3)  19:37+1:0619:39+1:062m1293.976289mWCRHarda, Madhya Pradesh
42/==/KKNKhirkiya (2)  20:04+1:0220:06+1:022m12125.449281mWCRSH 15, Madhya Pradesh
43/==/KNWKhandwa Junction (5)X  21:40+3921:45+385m22201.586310mCRKhandwa, Madhya Pradesh
44/==/BAUBurhanpur (2)  22:33+4522:35+452m12270.465269mCRBurhanpur, Madhya Pradesh
45/==/BSLBhusaval Junction (8)X  23:25+4223:35+4410m32324.960208mCRBhusaval 425201, Maharashtra
46/==/JLJalgaon Junction (4)  23:59+4900:01+502m22349.096213mCRJalgaon 425001, Maharashtra
47/==/CSNChalisgaon Junction (3)X  00:59+5601:01+562m13441.683352mCRChalisgaon 424101, Maharashtra
48/==/MMRManmad Junction (6)XO  01:50+5801:55+1:065m33509.187580mCRManmad 423104, Maharashtra
49/==/NKNasik Road (3)XO  02:45+1:1302:50+1:125m33581.843563mCRNashik 422101, Maharashtra
50/==/DVLDevlali (3)X  02:58+1:1203:00+1:122m23587.632561mCRDist. Nashik 422401, Maharashtra
51/==/IGPIgatpuri (4)04:25+3304:30+475m33632.545589mCRIgatpuri 422403, Maharashtra
52/==/KYNKalyan Junction (8)X  06:20+1:2206:25+1:185m53714.37210mCRKalyan 421301, Maharashtra
53/==/DRMumbai Dadar Central (8)  07:10 07:02+1:0907:15 07:05+1:125 3m63758.8177mCRMumbai 400014, Maharashtra
54/==/CSTMMumbai CST (18)•  07:35+1:18-143767.4-10mCRMumbai 400001, Maharashtra
Scroll to Top
Scroll to Bottom